Погода в Машише

Мозамбик     23°51′42″S   35°20′16″E
темп.,
°C
ветер,
м/с
пор.,
м/с
влажн.,
%
обл.,
%
осадки,
мм/ч
давл.,
гПа
погр.,
м
8 марта, пн
пн823:00+21вюв129419 0.0 101326
02:00+20юв019111 0.0 101123
05:00+19юз12910 0.0 101224
08:00+25ююз11700 0.0 1012270
11:00+30ююв12480 0.0 10121390
14:00+29в43530 0.0 1009918
17:00+25всв36700 0.0 1008563
20:00+22всв25860 0.0 1010118
9 марта, вт
вт923:00+21св26840 0.0 1011137
02:00+20с23930 0.0 101074
05:00+18сз12900 0.0 101123
08:00+25с13700 0.0 1013294
11:00+30св22510 0.0 10131174
14:00+29всв43550 0.0 1010777
17:00+26св37700 0.0 1009427
20:00+21св23900 0.0 101160
10 марта, ср
ср1023:00+20ссв23900 0.0 101288
02:00+19с22910 0.0 101049
05:00+18ссз23890 0.0 101156
08:00+24с36720 0.0 1013515
11:00+29с34560 0.0 10121114
14:00+31ссв34510 0.0 10091218
17:00+27св35730 0.0 1008293
20:00+22ссв27890 0.0 1010187
11 марта, чт
чт1123:00+21с24930 0.0 101093
02:00+20с38930 0.0 1010231
05:00+20сз23970 0.0 101197
08:00+25ссз37701 0.0 1012663
11:00+29с33500 0.0 10111110
14:00+30всв43520 0.0 1009964
17:00+26св47740 0.0 1008394
20:00+22св24860 0.0 1010101
12 марта, пт
пт1223:00+21св23900 0.0 101266
02:00+20с11910 0.0 101224
05:00+19юз11940 0.0 101423
08:00+25ю127421 0.0 1015277
11:00+28вюв335542 0.1 10151498
14:00+29вюв445423 0.1 10141229
17:00+25вюв36670 0.0 1013698
20:00+21вюв23770 0.0 101544